Weather History for Easton, MD

Change the Weather History Date:

Tuesday, March 19, 2013

  Actual Average Record
Temperature  
Mean Temperature 46 °F -  
Max Temperature 55 °F 56 °F 75 °F (2012)
Min Temperature 37 °F 37 °F 13 °F (1967)
Degree Days  
Heating Degree Days 19    
Moisture  
Dew Point 37 °F    
Average Humidity 86    
Maximum Humidity 100    
Minimum Humidity 34    
Precipitation  
Precipitation 0.02 in - - ()
Sea Level Pressure  
Sea Level Pressure 29.84 in    
Wind  
Wind Speed 3 mph (WNW)    
Max Wind Speed 14 mph    
Max Gust Speed 22 mph    
Visibility 6 miles    
Events Rain    
Averages and records for this station are not official NWS values.
T = Trace of Precipitation, MM = Missing Value Source: NWS Daily Summary

Daily Weather History Graph

Daily Weather History Graph

Search for Another Location

Airport:

Trip Planner

Search our weather history database for the weather conditions in past years. The results will help you decide how hot, cold, wet, or windy it might be!

Date:

Astronomy

Mar. 19, 2013 Rise Set
Actual Time 7:08 AM EDT 7:15 PM EDT
Civil Twilight 6:42 AM EDT 7:42 PM EDT
Nautical Twilight 6:11 AM EDT 8:13 PM EDT
Astronomical Twilight 5:40 AM EDT 8:44 PM EDT
Moon 12:00 PM EDT (3/19) 1:57 AM EDT (3/19)
Length of Visible Light 12h 59m
Length of Day
12h 06m
Waxing Crescent, 49% of the Moon is Illuminated
Mar 19
Waxing Crescent
Mar 19
First Quarter
Mar 27
Full
Apr 3
Last Quarter
Apr 10
New

Hourly Weather History & Observations

Time (EDT) Temp. Windchill Dew Point Humidity Pressure Visibility Wind Dir Wind Speed Gust Speed Precip Events Conditions
12:04 AM 39.2 °F - 39.2 °F 100% 29.90 in 2.5 mi Calm Calm - N/A   Overcast
12:24 AM 39.2 °F - 39.2 °F 100% 29.89 in 1.5 mi Calm Calm - N/A   Overcast
12:44 AM 39.2 °F 37.0 °F 39.2 °F 100% 29.89 in 1.2 mi WNW 3.5 mph - N/A   Overcast
1:04 AM 39.2 °F 37.0 °F 39.2 °F 100% 29.87 in 0.8 mi NNW 3.5 mph - N/A   Overcast
1:24 AM 39.2 °F 35.0 °F 39.2 °F 100% 29.87 in 0.8 mi NNW 5.8 mph - N/A   Heavy Drizzle
1:44 AM 39.2 °F 33.6 °F 39.2 °F 100% 29.89 in 1.8 mi NW 8.1 mph - 0.01 in   Heavy Drizzle
2:04 AM 39.2 °F 35.9 °F 39.2 °F 100% 29.88 in 7.0 mi NW 4.6 mph - N/A Rain Rain
2:24 AM 39.2 °F 37.0 °F 39.2 °F 100% 29.86 in 5.0 mi NW 3.5 mph - 0.01 in Rain Light Rain
2:44 AM 39.2 °F - 39.2 °F 100% 29.85 in 7.0 mi Calm Calm - 0.01 in Rain Light Rain
3:04 AM 39.2 °F - 39.2 °F 100% 29.86 in 10.0 mi Calm Calm - N/A   Overcast
3:24 AM 39.2 °F - 39.2 °F 100% 29.85 in 10.0 mi Calm Calm - N/A   Overcast
3:44 AM 39.6 °F - 39.6 °F 100% 29.85 in 10.0 mi Calm Calm - N/A   Overcast
4:04 AM 39.4 °F - 39.4 °F 100% 29.84 in 4.0 mi Calm Calm - N/A   Overcast
4:24 AM 38.8 °F 36.5 °F 38.8 °F 100% 29.83 in 1.2 mi NW 3.5 mph - N/A   Overcast
4:44 AM 38.7 °F - 38.7 °F 100% 29.82 in 1.0 mi Calm Calm - N/A   Overcast
5:04 AM 38.7 °F - 38.7 °F 100% 29.82 in 1.0 mi Calm Calm - N/A   Overcast
5:24 AM 38.5 °F - 38.5 °F 100% 29.81 in 1.5 mi Calm Calm - N/A   Overcast
5:44 AM 38.3 °F - 38.3 °F 100% 29.80 in 0.8 mi Calm Calm - N/A   Overcast
5:50 AM 37.4 °F - 37.4 °F 100% 29.81 in 0.8 mi Calm Calm - N/A   Overcast
6:04 AM 38.3 °F - 38.3 °F 100% 29.81 in 1.8 mi Calm Calm - N/A   Overcast
6:24 AM 38.3 °F - 38.3 °F 100% 29.81 in 1.0 mi Calm Calm - N/A   Overcast
6:44 AM 38.5 °F 36.1 °F 38.5 °F 100% 29.80 in 0.8 mi SW 3.5 mph - N/A   Overcast
6:50 AM 37.4 °F - 37.4 °F 100% 29.80 in 0.8 mi Calm Calm - N/A   Overcast
7:04 AM 38.3 °F - 38.3 °F 100% 29.81 in 2.5 mi Calm Calm - N/A   Overcast
7:24 AM 38.3 °F - 38.3 °F 100% 29.80 in 2.5 mi Calm Calm - N/A   Overcast
7:41 AM 38.5 °F - 38.5 °F 100% 29.80 in 4.0 mi Calm Calm - N/A   Overcast
7:50 AM 39.2 °F 35.9 °F 39.2 °F 100% 29.81 in 5.0 mi West 4.6 mph - N/A   Overcast
9:52 AM 39.2 °F 35.0 °F 39.2 °F 100% 29.85 in 10.0 mi WNW 5.8 mph - N/A   Overcast
10:53 AM 41.0 °F 36.4 °F 41.0 °F 100% 29.84 in 10.0 mi NW 6.9 mph - N/A   Overcast
11:53 AM 46.4 °F 41.9 °F 42.8 °F 87% 29.83 in 10.0 mi NNW 9.2 mph - N/A   Scattered Clouds
12:53 PM 48.2 °F - 41.0 °F 76% 29.82 in 10.0 mi North 9.2 mph 18.4 mph N/A   Partly Cloudy
1:50 PM 51.8 °F - 41.0 °F 67% 29.79 in 10.0 mi North 5.8 mph - N/A   Partly Cloudy
2:53 PM 55.4 °F - 41.0 °F 58% 29.78 in 10.0 mi West 5.8 mph - N/A   Partly Cloudy
3:53 PM 55.4 °F - 41.0 °F 58% 29.77 in 10.0 mi West 4.6 mph - N/A   Partly Cloudy
4:53 PM 55.4 °F - 41.0 °F 58% 29.78 in 10.0 mi SW 6.9 mph - N/A   Partly Cloudy
5:53 PM 55.4 °F - 41.0 °F 58% 29.76 in 10.0 mi SW 11.5 mph - N/A   Scattered Clouds
6:53 PM 50.0 °F - 41.0 °F 71% 29.80 in 10.0 mi North 6.9 mph - N/A   Scattered Clouds
7:53 PM 46.4 °F 45.2 °F 41.0 °F 81% 29.82 in 10.0 mi WSW 3.5 mph - N/A   Partly Cloudy
8:53 PM 50.0 °F - 24.8 °F 37% 29.85 in 10.0 mi WNW 11.5 mph 20.7 mph N/A   Clear
10:46 PM 47.5 °F - 20.5 °F 34% 29.89 in 10.0 mi NW 11.5 mph - N/A   Clear
11:06 PM 47.1 °F - 20.3 °F 35% 29.90 in 10.0 mi NW 10.4 mph 20.7 mph N/A   Clear
11:26 PM 46.8 °F - 20.5 °F 35% 29.91 in 10.0 mi NW 9.2 mph - N/A   Clear
11:46 PM 46.0 °F 39.9 °F 21.0 °F 37% 29.93 in 10.0 mi NW 13.8 mph 21.9 mph N/A   Clear